{"data":{"norad_id":48685,"epoch":"2026-09-19T23:22:21.889344Z","epoch_age_seconds":86683,"freshness":"FRESH","line1":"1 48685U 21044AZ  26262.97386446  .00000107  00000+0  15222-4 0  9990","line2":"2 48685  53.1591 240.7450 0001229  93.4129 266.7013 15.31704518294286","mean_motion":15.31704518,"eccentricity":0.0001229,"inclination_deg":53.1591,"raan_deg":240.745,"arg_perigee_deg":93.4129,"mean_anomaly_deg":266.7013,"bstar":1.5222e-5,"rev_number":29428,"period_min":94.012910654612,"perigee_km":469.88480200834,"apogee_km":471.56825266336,"semimajor_km":6848.8635273358,"source":"CELESTRAK","updated_at":"2026-09-20T09:00:39.244092Z"}}